Location: Unspecified
(38.9820°N, 94.4650°W)
Time: 05:50:46
(UTC-05:00)

Resurs 1-4 Rocket - Visible Passes

Search period start: 27 August 2014 00:00
Search period end: 06 September 2014 00:00
Orbit: 800 x 815 km, 98.3° (Epoch: 25 August)

Date Brightness Start Highest point End Pass type
(mag) Time Alt. Az. Time Alt. Az. Time Alt. Az.
27 Aug 3.0 05:00:29 10° NNE 05:05:35 48° E 05:10:40 10° S visible
28 Aug 3.9 04:36:31 10° NE 04:41:03 29° E 04:45:34 10° SSE visible
28 Aug 2.9 06:16:12 10° N 06:20:53 33° WNW 06:25:34 10° SW visible
29 Aug 4.6 04:13:05 10° NE 04:16:26 17° E 04:19:46 10° SE visible
29 Aug 2.2 05:51:28 10° N 05:56:37 56° WNW 06:01:46 10° SSW visible
30 Aug 2.1 05:26:58 10° NNE 05:32:16 87° ESE 05:37:33 10° SSW visible
31 Aug 2.9 05:02:41 10° NNE 05:07:50 52° E 05:12:58 10° S visible
01 Sep 3.8 04:38:41 10° NE 04:43:19 30° E 04:47:55 10° SSE visible
02 Sep 4.5 04:15:10 10° NE 04:18:42 18° E 04:22:14 10° SE visible
02 Sep 2.3 05:53:43 10° N 05:58:51 52° WNW 06:03:57 10° SSW visible
03 Sep 2.1 05:29:11 10° NNE 05:34:30 88° WNW 05:39:48 10° SSW visible
04 Sep 2.8 05:04:53 10° NNE 05:10:04 55° E 05:15:15 10° S visible
05 Sep 3.7 04:40:51 10° NNE 04:45:34 32° E 04:50:16 10° SSE visible
05 Sep 3.0 06:20:46 10° N 06:25:19 30° WNW 06:29:51 10° SW visible
